Wind_Speed
34 35 35 36 37 37 37 36 36 36 36 37 37 37 37 37 37 38 39 40 40 40 41 41 41 42 42 42 42 42 42 41 40 39 40 40 40 40 39 40 40 40 40
35 35 36 36 37 38 38 38 38 38 38 38 38 38 38 38 38 38 39 39 40 40 41 41 42 43 43 43 43 43 43 42 41 40 39 39 39 39 39 39 39 40 40
36 37 37 38 38 39 39 39 39 39 39 39 38 38 37 37 37 37 38 38 38 39 40 41 41 42 42 43 43 43 43 42 42 41 40 40 40 39 39 39 39 39 39
36 37 37 38 38 38 38 38 38 38 38 37 37 36 36 36 37 37 37 37 37 37 38 39 39 40 40 41 42 42 42 42 41 41 41 41 41 41 40 40 39 40 40
36 37 37 37 38 38 37 37 37 37 37 36 36 36 36 36 36 36 36 37 37 37 37 38 38 39 39 39 40 40 41 41 42 42 42 41 41 41 40 40 40 40 40
38 38 38 38 38 39 39 38 38 38 37 36 36 36 36 36 36 36 37 37 37 37 37 37 37 38 38 38 38 39 39 40 40 41 41 41 41 41 40 40 40 40 40
39 39 40 40 40 39 39 39 39 39 38 38 37 37 37 37 37 37 37 37 37 37 37 37 37 37 37 37 37 38 38 38 39 40 40 40 41 41 41 40 41 40 39
40 40 40 41 40 40 40 40 40 39 38 38 38 38 38 38 38 38 38 38 37 37 37 37 37 37 37 38 38 38 38 39 39 40 39 39 39 40 40 40 40 39 40
41 41 41 42 41 41 41 41 41 40 40 39 39 39 39 39 39 39 39 38 38 38 38 38 38 37 38 38 38 38 39 40 40 40 39 40 40 40 39 39 39 39 40
43 43 42 42 42 42 42 41 41 41 40 40 40 40 41 40 41 41 40 39 39 39 38 38 38 38 39 39 40 40 40 40 41 41 41 42 41 41 41 40 40 40 40
44 44 44 43 43 43 43 42 42 42 42 41 41 41 41 42 42 42 41 40 40 39 39 39 39 40 40 41 41 40 40 40 40 41 41 42 42 41 41 40 41 41 40
45 45 45 45 45 45 45 44 44 43 42 42 42 42 42 42 42 42 42 41 41 40 40 40 40 41 41 41 41 41 41 41 41 41 41 41 41 41 40 40 40 40 40
46 46 46 46 46 46 46 45 44 44 44 43 44 43 43 43 42 42 42 42 41 41 41 42 41 41 41 41 41 41 40 40 40 40 40 40 40 40 40 39 39 39 39
46 47 46 46 46 46 46 46 46 45 45 45 45 44 44 43 43 43 42 42 42 41 41 41 41 41 41 41 41 41 40 40 40 40 40 39 39 39 38 38 38 38 38
47 46 46 45 45 45 45 45 45 46 46 46 45 45 44 43 43 43 42 42 42 42 41 41 41 41 41 41 41 41 40 40 39 39 38 38 38 38 37 37 37 37 37
46 46 46 46 45 45 45 45 45 45 45 45 45 44 43 43 42 42 42 42 42 41 41 40 40 40 40 40 40 40 40 39 38 37 37 37 36 36 36 36 36 36 35
46 46 46 45 45 44 45 44 44 44 44 44 43 43 42 42 42 42 42 41 41 41 41 40 39 39 39 39 39 39 38 37 37 36 36 35 34 34 34 34 34 34 34
46 45 45 45 45 45 45 45 45 45 44 42 42 42 41 41 41 41 41 40 40 40 39 39 38 38 37 37 37 36 36 35 35 34 33 33 32 33 33 33 33 34 34
45 45 45 45 45 45 45 45 45 44 43 42 42 41 41 41 41 40 40 40 39 38 38 38 38 37 36 35 34 34 34 33 32 32 32 31 32 32 32 33 33 33 33
45 45 45 45 45 45 44 44 43 43 42 41 41 40 40 40 39 39 38 37 37 36 35 35 35 35 34 33 32 32 31 31 31 30 30 30 30 31 31 31 31 32 32
44 44 44 44 43 43 42 42 42 41 40 40 39 38 39 38 37 36 35 35 35 34 33 33 33 33 32 32 31 31 30 29 28 28 29 29 30 30 30 30 31 31 31
44 43 42 42 41 41 40 40 40 39 39 39 38 37 37 36 35 35 34 33 33 33 33 32 31 31 31 31 30 29 29 28 28 27 28 28 29 29 29 29 30 30 30
40 40 39 39 39 38 38 37 37 37 37 37 36 35 34 34 33 33 33 32 32 32 31 31 30 30 30 30 29 29 29 28 28 27 27 28 28 28 28 28 29 29 29
39 38 37 37 36 34 34 33 33 32 33 33 33 33 32 32 32 32 32 31 31 30 30 30 30 30 30 29 29 29 28 28 28 27 27 28 28 28 28 27 28 28 28
35 34 33 32 32 31 30 30 29 29 29 30 30 30 30 30 30 30 30 30 29 29 29 28 28 28 28 28 28 28 28 28 27 27 28 28 28 28 27 27 27 28 28
31 30 29 29 28 28 27 27 27 27 27 28 28 29 29 29 29 29 29 28 28 28 27 27 27 27 27 27 27 27 27 27 27 27 27 27 27 27 27 27 27 27 27
Wind_Direction
265 265 264 265 265 266 267 267 268 269 269 270 270 270 270 269 268 267 267 266 265 264 263 264 264 264 266 267 268 269 271 273 275 275 276 277 277 277 278 279 278 277 277
265 266 266 266 267 268 268 268 269 269 270 270 270 270 269 268 267 267 266 266 265 265 264 265 265 264 265 266 267 269 271 272 274 275 275 276 276 277 279 279 279 279 279
266 266 266 266 267 268 268 269 269 270 270 270 270 270 270 269 268 267 266 266 266 266 266 265 265 266 266 266 268 270 271 272 273 273 275 275 276 277 278 278 279 280 280
266 267 268 267 267 267 268 269 269 269 270 270 269 269 269 269 269 267 267 266 266 266 267 266 266 266 267 268 268 269 270 271 272 273 274 274 275 276 277 278 278 279 280
268 268 268 268 267 267 268 268 269 269 268 268 268 268 268 269 269 268 267 267 267 267 267 266 266 266 268 268 269 269 269 270 271 272 273 274 274 275 276 277 277 278 280
270 270 269 269 269 269 269 268 269 268 268 268 268 267 268 268 268 268 268 268 267 267 267 266 267 268 268 268 268 269 270 270 270 272 273 274 274 275 275 275 276 277 278
270 271 271 271 270 270 269 269 269 268 267 267 267 267 268 268 268 268 267 267 268 267 267 267 268 268 267 268 268 269 269 270 271 271 273 274 274 275 275 275 276 277 277
271 271 271 271 271 271 270 269 268 267 267 267 267 268 268 268 269 269 268 268 267 267 268 268 268 268 268 269 269 268 269 270 271 271 273 274 274 275 274 275 276 276 277
272 271 271 271 271 271 270 269 268 266 265 266 267 267 268 268 268 268 268 267 267 267 268 268 268 268 269 269 270 270 270 271 271 272 272 273 274 274 275 276 276 277 277
272 272 271 271 271 270 269 268 267 266 266 266 267 267 267 267 268 268 267 267 267 267 268 268 268 268 269 270 271 271 271 271 272 272 272 273 274 275 275 276 276 277 278
272 272 271 270 270 270 269 268 267 266 266 266 266 266 267 267 267 266 266 267 267 267 267 267 268 269 269 270 270 271 271 271 272 272 272 273 275 276 276 276 277 278 278
272 271 270 269 268 268 267 266 266 265 265 264 265 265 266 266 266 265 265 266 266 266 266 267 268 269 269 269 270 271 271 272 272 273 273 274 275 275 276 276 277 278 279
272 271 270 269 268 267 266 265 265 264 264 264 264 264 265 266 266 265 266 266 266 266 266 267 268 268 268 269 270 270 271 271 272 273 274 274 274 275 276 276 277 278 278
273 272 271 270 268 267 266 265 265 265 265 265 265 265 266 266 265 265 265 265 265 266 266 266 267 267 267 268 269 269 270 270 271 272 273 274 274 275 275 275 276 277 278
274 273 271 270 269 267 266 266 266 265 266 266 266 266 266 265 264 264 264 264 265 265 265 265 265 266 267 268 268 269 270 270 271 272 272 273 273 274 274 275 276 278 279
274 273 272 271 269 268 267 267 267 267 266 267 266 266 265 265 263 263 263 264 264 264 264 265 266 266 267 267 268 268 268 269 270 270 271 272 272 272 274 275 277 278 280
273 273 272 271 269 268 268 267 266 266 266 266 265 265 264 263 263 263 264 264 264 264 264 264 265 266 266 266 267 267 268 269 269 270 271 271 272 273 275 276 277 278 280
273 273 272 271 270 269 268 267 266 266 265 264 263 262 262 262 262 262 262 263 263 263 263 263 264 265 266 265 266 267 267 269 269 270 271 271 273 274 275 276 277 278 279
273 273 273 271 270 269 268 267 266 265 263 262 261 260 260 260 260 259 259 260 261 262 262 262 262 264 265 265 266 266 267 268 269 270 271 272 274 275 276 277 277 278 279
272 272 272 271 269 269 267 266 264 263 261 260 259 259 258 258 259 258 258 259 260 261 261 260 260 261 263 263 263 264 266 267 267 268 269 272 273 275 276 276 276 276 277
272 272 272 270 268 267 266 265 263 261 260 258 257 256 256 256 256 255 256 258 258 259 258 259 259 261 261 261 262 264 265 265 265 267 270 272 273 274 275 275 276 276 277
272 271 270 269 268 266 265 263 260 259 258 256 255 254 254 254 254 254 255 256 257 258 258 258 259 260 260 259 261 262 262 263 265 267 270 272 273 274 275 276 277 277 278
271 270 269 269 268 265 264 262 259 257 256 254 253 252 252 252 252 253 253 254 256 258 257 257 258 258 258 257 258 260 261 262 265 268 270 271 273 274 275 276 277 278 279
270 270 269 268 267 263 261 258 256 255 254 252 251 250 249 249 250 250 251 253 255 256 256 256 256 255 255 255 256 258 260 262 265 267 269 271 273 274 275 276 277 278 279
269 268 267 265 263 260 257 254 253 252 251 250 248 247 247 247 247 248 249 251 252 253 253 253 253 253 253 254 255 256 259 262 265 266 269 270 272 273 275 277 278 279 280
266 265 263 261 260 256 252 251 250 249 248 248 247 247 246 246 247 248 248 249 250 250 250 250 251 252 253 254 256 257 260 262 263 266 268 269 271 272 274 276 278 280 281
Height
5683 5682 5682 5682 5682 5682 5682 5682 5682 5682 5681 5681 5681 5681 5681 5680 5680 5680 5680 5681 5681 5682 5682 5683 5683 5683 5684 5684 5683 5684 5683 5683 5683 5682 5680 5679 5677 5676 5674 5673 5672 5670 5670
5673 5673 5673 5673 5673 5672 5672 5672 5672 5672 5672 5671 5671 5671 5671 5671 5670 5671 5671 5671 5671 5671 5671 5672 5672 5672 5672 5672 5672 5673 5672 5672 5672 5671 5670 5669 5668 5666 5665 5663 5662 5660 5659
5664 5663 5663 5663 5663 5662 5662 5662 5662 5661 5661 5661 5661 5661 5661 5661 5661 5661 5661 5661 5661 5661 5661 5661 5661 5661 5661 5661 5661 5661 5661 5661 5660 5660 5660 5659 5658 5656 5655 5653 5652 5650 5649
5654 5653 5653 5652 5652 5652 5651 5651 5651 5651 5651 5651 5651 5651 5651 5651 5651 5651 5651 5651 5651 5651 5651 5650 5650 5650 5650 5650 5650 5650 5649 5649 5649 5649 5649 5648 5647 5646 5645 5643 5642 5640 5639
5643 5643 5642 5642 5641 5641 5641 5640 5640 5640 5640 5641 5641 5641 5641 5641 5641 5641 5641 5641 5641 5641 5640 5640 5640 5639 5639 5638 5638 5638 5638 5638 5638 5638 5638 5637 5637 5636 5635 5633 5632 5630 5629
5632 5632 5631 5630 5630 5630 5630 5629 5629 5629 5630 5630 5630 5630 5630 5630 5630 5630 5630 5630 5630 5630 5630 5630 5629 5629 5628 5628 5628 5628 5627 5627 5627 5627 5627 5626 5625 5624 5623 5622 5621 5620 5619
5620 5620 5620 5619 5619 5618 5618 5618 5618 5618 5619 5619 5619 5620 5620 5620 5620 5620 5620 5620 5620 5620 5620 5619 5619 5618 5618 5618 5617 5617 5617 5616 5616 5616 5616 5615 5614 5613 5612 5611 5610 5608 5607
5608 5608 5607 5607 5607 5607 5606 5606 5606 5607 5607 5608 5608 5609 5609 5609 5609 5609 5608 5609 5609 5609 5609 5608 5608 5608 5607 5607 5606 5606 5606 5606 5605 5605 5605 5604 5603 5602 5601 5600 5598 5597 5596
5596 5595 5595 5594 5594 5594 5594 5594 5594 5595 5595 5596 5597 5597 5597 5598 5597 5597 5597 5597 5598 5598 5598 5597 5597 5597 5596 5596 5596 5596 5595 5595 5594 5593 5593 5592 5591 5590 5589 5588 5587 5586 5585
5582 5582 5582 5581 5581 5581 5581 5582 5582 5582 5583 5584 5584 5585 5585 5586 5585 5585 5585 5586 5586 5586 5586 5586 5586 5586 5585 5585 5585 5584 5584 5583 5582 5582 5582 5581 5580 5579 5578 5577 5575 5574 5572
5568 5568 5568 5568 5568 5568 5568 5569 5569 5570 5571 5571 5572 5573 5573 5573 5573 5573 5573 5573 5574 5574 5575 5575 5574 5574 5574 5573 5573 5573 5572 5571 5571 5570 5569 5569 5568 5567 5566 5564 5563 5562 5560
5554 5554 5554 5554 5554 5554 5554 5555 5555 5556 5557 5558 5559 5560 5560 5560 5560 5560 5560 5561 5562 5562 5563 5563 5562 5562 5561 5561 5561 5561 5560 5559 5559 5558 5558 5557 5556 5555 5554 5553 5551 5550 5548
5539 5539 5539 5539 5539 5539 5540 5540 5541 5542 5543 5545 5545 5546 5547 5547 5547 5547 5548 5548 5549 5550 5550 5550 5550 5549 5549 5549 5548 5548 5547 5547 5547 5546 5546 5545 5544 5543 5542 5541 5540 5538 5536
5524 5524 5524 5524 5524 5524 5525 5526 5527 5528 5529 5530 5531 5532 5533 5533 5534 5534 5535 5535 5536 5536 5537 5537 5537 5536 5536 5536 5536 5535 5535 5535 5535 5534 5534 5533 5532 5532 5531 5529 5528 5527 5526
5510 5509 5509 5509 5509 5509 5510 5511 5512 5513 5513 5515 5516 5517 5518 5519 5520 5520 5521 5522 5522 5523 5523 5524 5523 5523 5523 5523 5523 5523 5523 5523 5523 5522 5522 5521 5521 5520 5519 5518 5517 5515 5514
5495 5495 5494 5494 5494 5494 5495 5496 5496 5498 5498 5499 5500 5502 5503 5504 5505 5506 5507 5508 5508 5509 5510 5510 5510 5510 5511 5511 5511 5511 5511 5511 5510 5510 5510 5510 5509 5508 5508 5507 5506 5505 5503
5480 5479 5479 5479 5479 5479 5480 5481 5482 5483 5483 5484 5485 5486 5488 5489 5490 5492 5493 5494 5495 5495 5497 5497 5498 5498 5498 5498 5498 5498 5498 5498 5499 5499 5498 5498 5498 5497 5497 5496 5495 5494 5493
5465 5464 5464 5464 5464 5464 5464 5465 5466 5467 5469 5470 5471 5471 5473 5475 5476 5477 5478 5480 5482 5483 5484 5484 5485 5485 5485 5486 5486 5486 5487 5487 5487 5487 5487 5487 5487 5487 5486 5485 5484 5483 5482
5450 5450 5449 5449 5449 5449 5449 5449 5450 5451 5453 5455 5456 5458 5459 5460 5462 5464 5465 5467 5469 5470 5471 5472 5472 5473 5474 5474 5474 5475 5476 5476 5476 5477 5477 5477 5477 5476 5475 5475 5474 5473 5472
5436 5435 5434 5434 5434 5434 5434 5434 5435 5436 5438 5440 5442 5444 5445 5447 5449 5451 5453 5454 5456 5458 5459 5460 5461 5462 5462 5463 5464 5465 5465 5466 5466 5467 5467 5466 5466 5466 5465 5464 5463 5463 5461
5421 5420 5419 5419 5419 5419 5419 5420 5420 5421 5423 5426 5428 5430 5431 5434 5436 5438 5441 5443 5444 5446 5447 5449 5450 5451 5452 5453 5454 5455 5455 5456 5456 5457 5457 5457 5456 5456 5455 5454 5453 5453 5452
5406 5405 5405 5405 5405 5405 5405 5406 5407 5408 5410 5412 5415 5417 5419 5421 5424 5427 5429 5431 5433 5434 5436 5438 5439 5440 5441 5442 5444 5445 5446 5446 5447 5447 5447 5447 5447 5446 5446 5445 5444 5443 5442
5391 5391 5391 5391 5391 5391 5392 5393 5394 5395 5397 5400 5402 5405 5407 5410 5413 5415 5418 5420 5422 5424 5425 5427 5428 5430 5431 5432 5434 5435 5436 5437 5438 5438 5438 5438 5438 5437 5437 5436 5435 5434 5433
5378 5378 5378 5378 5379 5379 5380 5381 5383 5384 5386 5389 5391 5394 5396 5399 5402 5404 5407 5409 5411 5413 5415 5417 5418 5420 5421 5423 5424 5425 5426 5427 5428 5429 5429 5429 5429 5428 5428 5427 5426 5425 5424
5365 5366 5366 5367 5367 5368 5369 5371 5373 5375 5377 5379 5382 5384 5386 5389 5392 5394 5397 5399 5401 5403 5405 5407 5408 5410 5412 5413 5415 5416 5417 5418 5419 5419 5419 5420 5419 5419 5419 5418 5417 5416 5415
5354 5355 5356 5356 5357 5359 5360 5362 5364 5366 5368 5371 5373 5375 5378 5380 5383 5385 5387 5390 5392 5394 5396 5398 5399 5401 5403 5404 5406 5407 5408 5409 5409 5410 5410 5410 5410 5410 5410 5410 5409 5408 5407